Weather in Ramatuelle

France     43°12′59″N   6°36′49″E
temp.,
°C
wind,
m/s
gust,
m/s
humid.,
%
clouds,
%
prec.,
mm/h
press.,
hPa
HPBL,
m
21 april, wed
wed2123:00+11nw1170100 0.0 101640
02:00+10n1172100 0.0 101623
05:00+10nne1178100 0.0 101625
08:00+11n1180100 0.1 101696
11:00+12ne1174100 0.7 1017371
14:00+14e3363100 1.0 10171179
17:00+14ene446260 0.3 10161042
20:00+12e34729 0.3 1016285
22 april, thu
thu2223:00+10ne248782 0.1 1018219
02:00+10ne358682 0.4 1018309
05:00+10nne248550 0.1 1017268
08:00+10nne387944 0.1 1018478
11:00+14ene8116611 0.2 10181162
14:00+16e79585 0.3 10181156
17:00+15e57546 0.0 1017892
20:00+13ene23646 0.0 1018194
23 april, fri
fri2323:00+11n12695 0.0 101941
02:00+9nw22660 0.0 101933
05:00+9nnw22690 0.0 101927
08:00+11nnw22660 0.0 101976
11:00+16ene35470 0.0 1020737
14:00+18e45400 0.0 10201019
17:00+19e34391 0.0 1019951
20:00+15se115313 0.0 101972
24 april, sat
sat2423:00+13nw11585 0.0 102013
02:00+12nw22634 0.0 102127
05:00+11nw22660 0.0 102025
08:00+13nnw11610 0.0 102154
11:00+18e33520 0.0 1021781
14:00+19ese43490 0.0 10211106
17:00+18se34460 0.0 1020732
20:00+15sse11570 0.0 1020106
25 april, sun
sun2523:00+13w226256 0.0 102121
02:00+12nw1165100 0.0 102017
05:00+11wnw1172100 0.0 101914
08:00+13nne006630 0.0 101942
11:00+19se223863 0.0 1020815
14:00+20sse333486 0.0 10191045
17:00+20s333766 0.0 10181034
20:00+15s2257100 0.0 1017110